Location: Unspecified
(58.7730°N, 5.8460°E)
Time: 22:50:45
(UTC+01:00)

Okean 3 - Visible Passes

Search period start: 03 December 2016 00:00
Search period end: 13 December 2016 00:00
Orbit: 578 x 603 km, 82.5° (Epoch: 02 December)

Date Brightness Start Highest point End Pass type
(mag) Time Alt. Az. Time Alt. Az. Time Alt. Az.
03 Dec 3.7 17:35:50 10° S 17:39:59 51° E 17:44:07 10° NNE visible
03 Dec 5.4 19:13:46 10° WSW 19:17:31 29° WNW 19:20:41 13° N visible
04 Dec 3.4 17:44:04 10° S 17:48:20 69° E 17:52:35 10° NNE visible
04 Dec 5.8 19:22:39 10° WSW 19:26:04 23° WNW 19:29:14 11° N visible
05 Dec 3.4 17:52:24 10° SSW 17:56:42 88° WNW 18:01:00 10° NNE visible
05 Dec 6.1 19:31:40 10° W 19:34:39 18° NW 19:37:37 10° N visible
06 Dec 3.8 18:00:51 10° SSW 18:05:06 66° WNW 18:09:22 10° N visible
06 Dec 6.3 19:40:53 10° W 19:43:16 14° NW 19:45:39 10° NNW visible
07 Dec 4.5 16:32:48 10° SSE 16:36:27 28° E 16:40:06 10° NNE visible
07 Dec 4.4 18:09:24 10° SW 18:13:33 49° WNW 18:17:43 10° N visible
07 Dec 6.4 19:50:25 10° WNW 19:51:55 12° NW 19:53:25 10° NNW visible
08 Dec 4.1 16:40:47 10° SSE 16:44:43 37° E 16:48:39 10° NNE visible
08 Dec 4.9 18:18:02 10° SW 18:22:01 37° WNW 18:26:00 10° N visible
09 Dec 3.7 16:48:53 10° S 16:53:01 50° E 16:57:08 10° NNE visible
09 Dec 5.3 18:26:47 10° SW 18:30:31 29° WNW 18:34:16 10° N visible
10 Dec 3.5 16:57:07 10° S 17:01:21 68° E 17:05:35 10° NNE visible
10 Dec 5.7 18:35:40 10° WSW 18:39:03 23° WNW 18:42:28 10° N visible
11 Dec 3.5 17:05:26 10° SSW 17:09:42 89° W 17:13:59 10° NNE visible
11 Dec 6.0 18:44:40 10° W 18:47:38 18° NW 18:50:36 10° N visible
12 Dec 3.8 17:13:52 10° SSW 17:18:07 67° WNW 17:22:21 10° N visible
12 Dec 6.2 18:53:52 10° W 18:56:15 14° NW 18:58:37 10° NNW visible
